Wind_Speed
40 40 36 34 39 45 46 47 42 41 42 43 43 42 42 45 49 49 50 51 52 51
33 35 38 41 44 44 40 41 45 46 44 45 45 43 43 44 46 50 51 53 53 52
13 20 33 36 40 44 44 47 42 40 43 45 45 44 44 45 45 49 51 52 53 53
12 9 20 31 37 38 36 40 38 44 37 42 45 46 46 45 45 46 49 50 52 51
11 15 16 18 27 26 31 34 38 40 42 40 40 43 45 42 42 45 48 51 50 50
11 12 13 20 22 24 25 28 29 33 37 39 42 41 39 39 41 41 46 48 49 51
14 17 18 18 20 26 28 26 27 32 34 35 37 37 38 38 38 39 44 49 50 51
16 16 18 18 21 25 23 28 30 27 28 30 30 32 34 35 36 37 42 50 51 51
17 17 21 21 18 17 21 27 26 28 30 28 31 32 32 34 33 36 39 49 51 53
20 18 21 25 25 21 19 19 21 27 31 32 31 30 31 33 35 38 37 39 43 49
22 22 19 24 27 27 23 19 18 21 25 27 28 30 30 30 32 41 35 39 39 44
23 26 27 25 27 29 29 25 22 20 22 24 26 28 30 33 35 37 40 39 50 42
30 28 29 31 31 30 31 29 27 24 23 23 24 25 25 29 30 37 45 45 44 43
33 31 31 33 32 30 29 29 28 28 25 22 21 22 22 27 28 31 38 39 38 38
Wind_Direction
235 240 239 243 237 235 238 242 247 249 249 250 249 247 246 241 243 244 245 244 244 244
237 237 235 237 237 235 238 243 247 247 251 253 252 251 249 246 244 244 245 244 245 246
246 246 245 248 244 244 245 245 247 250 249 246 251 252 251 249 246 245 246 247 244 244
259 261 245 247 248 249 255 250 248 246 249 250 251 253 250 249 250 248 248 250 246 246
263 252 244 239 238 248 253 251 252 251 251 248 250 251 250 251 251 250 247 246 245 245
286 277 259 248 242 235 239 248 250 251 248 249 251 253 254 253 250 254 249 249 249 246
291 285 281 267 258 249 243 241 245 252 254 254 253 254 256 253 253 251 252 249 247 247
316 309 301 291 274 267 257 246 243 248 258 259 257 256 256 256 254 253 253 251 249 247
313 313 312 311 307 293 272 259 249 248 247 253 261 258 255 256 255 256 255 250 246 241
309 303 310 307 308 308 301 291 269 250 250 253 256 260 261 261 256 255 252 252 249 247
307 295 303 298 300 301 304 304 299 269 260 256 257 258 257 257 255 254 251 263 250 253
296 298 287 293 295 296 299 303 304 300 276 265 259 255 256 256 261 255 257 255 246 249
285 286 289 286 288 290 292 296 297 298 296 275 272 265 258 256 257 256 250 242 230 230
279 283 285 282 281 282 288 292 293 295 294 290 273 271 267 264 259 253 246 237 227 224
Height
1457 1456 1458 1460 1465 1469 1470 1471 1474 1476 1478 1480 1482 1485 1489 1490 1492 1495 1496 1498 1499 1501
1451 1449 1452 1456 1461 1464 1466 1466 1466 1469 1471 1472 1474 1476 1480 1482 1484 1486 1487 1488 1490 1493
1440 1443 1447 1450 1453 1456 1459 1462 1462 1461 1463 1466 1467 1469 1471 1473 1475 1478 1479 1481 1482 1483
1439 1440 1441 1443 1446 1449 1451 1453 1454 1455 1456 1458 1459 1460 1462 1465 1467 1469 1471 1472 1472 1475
1436 1436 1437 1437 1439 1442 1444 1446 1447 1448 1450 1451 1452 1453 1455 1457 1459 1460 1462 1462 1465 1468
1432 1433 1433 1434 1436 1436 1437 1438 1439 1440 1442 1444 1443 1445 1447 1449 1451 1452 1453 1455 1456 1459
1431 1431 1429 1431 1431 1431 1431 1431 1433 1433 1435 1436 1437 1438 1439 1441 1443 1445 1445 1446 1448 1450
1429 1429 1429 1429 1428 1426 1425 1425 1425 1427 1427 1428 1430 1431 1432 1434 1436 1437 1438 1437 1440 1442
1427 1427 1426 1425 1423 1421 1419 1419 1419 1419 1420 1420 1421 1423 1425 1427 1428 1430 1431 1430 1432 1435
1424 1422 1421 1419 1418 1417 1415 1413 1412 1412 1412 1413 1415 1416 1418 1419 1420 1421 1423 1425 1428 1428
1420 1419 1416 1415 1413 1412 1411 1409 1407 1407 1406 1405 1407 1408 1409 1411 1411 1412 1413 1416 1419 1422
1415 1414 1413 1409 1407 1406 1406 1405 1402 1400 1399 1398 1398 1400 1401 1401 1404 1404 1405 1406 1409 1413
1410 1408 1407 1405 1402 1400 1399 1399 1397 1395 1393 1391 1392 1392 1392 1393 1395 1397 1397 1397 1399 1403
1402 1401 1400 1398 1396 1394 1394 1393 1392 1390 1388 1385 1385 1385 1385 1385 1387 1389 1390 1392 1394 1397